Location: Centerville
(32.8776°N, 96.6203°W)
Time: 00:32:32
(UTC+00:00)

ATLAS 5 CENTAUR R/B - Pass Details

Date: 17 June 2021
Orbit: 255 x 12632 km, 20.1° (Epoch: 31 July)

Event Time Altitude Azimuth Distance (km) Brightness Sun altitude
Exits shadow 08:36:29 36° 228° (SW) 3,373 4.2 -25.9°
Maximum altitude 08:43:05 52° 176° (S) 4,147 4.8 -25.1°
Drops below altitude 10° 09:45:40 10° 114° (ESE) 15,774 8.4 -16.5°
Sets 10:13:28 0° 113° (ESE) 17,912 8.9 -12.1°
